Dewpoint
36 36 37 35 31 28 30 32 34 37 34 31 29 30 31 32 31 32 33 32 30 29 29 28 26 26 24 24 24 22 21 21 19 18 20 22 23 23 23 24 26 26 27
36 37 35 30 27 29 31 31 32 30 29 29 30 33 34 33 30 29 28 26 24 22 21 23 21 20 23 24 24 24 24 23 22 20 20 21 24 24 25 27 27 28 30
37 37 33 31 30 35 36 36 36 35 34 35 35 37 35 30 26 25 24 24 24 23 24 24 24 23 21 21 21 20 20 20 20 19 18 19 20 22 22 23 24 26 27
38 36 35 34 35 36 36 36 36 35 34 35 35 34 35 32 25 21 22 23 24 23 24 23 21 21 20 19 18 18 18 18 18 18 17 17 18 18 20 21 21 23 24
37 37 37 37 37 37 33 32 33 32 32 34 34 32 24 23 21 25 25 24 24 23 23 21 20 20 21 21 20 19 19 19 19 18 18 18 19 20 21 21 21 22 23
37 31 29 29 29 29 30 30 31 28 24 22 21 21 23 23 27 28 27 24 23 21 20 20 19 20 20 21 23 23 23 21 19 19 18 17 17 17 18 18 19 19 18
29 28 28 30 26 23 22 21 20 20 20 19 20 23 23 22 21 22 22 20 20 20 19 18 18 18 20 21 21 21 22 23 23 22 21 21 20 20 20 20 21 20 19
28 30 30 26 22 22 21 20 19 19 19 19 22 21 19 17 20 20 21 20 21 20 19 19 19 20 21 21 21 21 21 22 22 22 22 21 20 20 20 22 22 21 22
28 27 23 23 22 21 20 19 19 19 19 20 18 18 17 18 19 20 21 20 20 20 20 21 20 20 21 23 23 23 23 20 20 22 23 25 26 25 24 23 24 23 22
25 23 22 22 21 20 20 19 19 19 18 18 17 18 19 19 19 20 19 19 19 19 20 20 21 23 24 26 25 24 22 19 19 24 24 23 25 27 28 28 26 24 21
23 22 21 21 21 21 19 19 18 17 20 21 21 21 21 19 19 19 18 19 21 21 21 20 23 26 26 23 22 21 21 21 22 23 22 22 24 26 25 23 27 27 24
23 22 21 21 21 19 19 18 17 18 20 20 20 19 18 19 18 18 18 20 21 23 21 24 26 24 22 20 20 21 22 22 22 22 22 22 23 24 24 23 23 25 28
23 22 21 22 21 20 18 19 18 19 20 18 17 16 15 16 17 17 19 21 20 22 25 24 22 22 20 18 19 20 21 21 21 21 21 23 26 26 27 29 28 27 28
22 22 22 22 22 22 21 21 19 20 19 18 17 16 15 14 15 17 20 19 20 24 24 23 21 21 18 17 18 19 20 20 20 20 21 23 25 26 26 26 26 26 27
22 22 23 24 23 22 22 20 20 21 19 18 16 15 16 15 17 20 20 20 22 22 22 20 18 17 15 15 16 17 18 18 19 20 21 23 24 25 24 26 25 26 25
22 23 24 23 22 20 19 19 20 20 20 17 17 16 16 16 19 19 19 20 20 20 18 16 15 15 15 15 15 15 16 17 17 18 20 21 23 24 24 24 24 24 24
24 24 23 22 21 20 20 19 18 18 18 16 16 15 15 15 18 18 18 18 18 17 15 14 14 14 14 14 14 14 15 16 17 17 18 19 21 24 25 24 24 24 24
24 23 23 22 21 21 21 19 18 17 16 15 15 14 14 14 15 15 15 15 13 13 13 13 12 13 13 13 13 14 15 16 16 16 17 18 19 22 22 23 24 24 24
25 23 23 22 22 21 20 19 18 17 16 15 14 12 13 13 12 13 13 12 11 10 11 12 12 12 12 13 14 14 15 15 16 16 16 17 17 19 20 21 22 21 22
24 22 21 22 21 20 20 18 17 17 15 15 13 13 12 11 11 11 11 11 10 10 10 10 11 11 12 12 13 14 14 15 15 15 16 17 17 18 18 19 20 20 20
24 23 22 21 21 21 19 18 17 17 16 15 14 14 13 11 11 10 10 9 7 6 7 8 9 11 11 12 12 13 12 13 14 14 15 16 17 17 17 18 19 19 18
24 23 23 21 21 20 19 18 17 16 15 15 14 13 12 12 11 10 9 8 8 8 8 8 8 9 10 10 11 12 12 12 12 13 15 16 16 16 17 17 17 17 17
24 24 23 22 20 19 20 18 17 16 15 15 14 13 12 12 11 11 9 9 8 8 8 8 8 7 8 9 9 10 10 11 11 11 12 14 15 15 16 16 15 15 15
24 24 23 23 21 20 20 19 17 14 14 15 15 14 13 12 12 11 10 10 9 9 8 8 8 7 7 7 7 7 7 9 10 10 10 11 12 13 14 14 15 14 14
24 24 24 23 22 21 19 19 18 16 15 16 15 14 13 13 12 12 12 12 11 10 9 8 8 7 8 7 7 6 4 4 5 7 10 10 9 10 10 11 12 13 12
24 24 24 24 22 21 20 19 19 18 16 16 16 15 14 13 11 12 12 12 11 10 8 8 8 7 7 6 5 6 5 4 4 3 9 9 8 8 9 8 9 10 10
Wind_Speed
9 12 14 15 15 15 12 11 5 4 4 3 6 8 12 10 9 6 4 4 4 4 5 7 9 9 9 8 11 13 14 15 20 21 18 16 20 19 18 18 18 18 16
11 11 11 11 11 11 10 9 8 8 7 6 8 11 11 11 12 8 6 5 6 7 8 9 11 9 10 9 9 11 12 14 17 22 21 18 19 19 17 15 15 15 15
13 10 9 9 8 8 9 11 11 11 10 11 12 11 14 15 13 10 7 7 7 8 7 7 8 8 11 12 14 16 17 18 19 21 23 21 20 19 22 22 21 21 20
7 5 5 5 5 8 10 10 10 9 10 11 11 12 9 11 12 11 9 8 7 7 8 10 12 13 14 16 17 18 18 19 19 21 22 23 21 21 22 22 23 21 22
6 7 8 8 6 5 5 7 8 11 12 11 13 11 9 8 8 9 6 8 10 13 15 15 15 16 20 20 19 19 19 19 19 20 21 21 21 18 19 20 22 21 22
4 4 5 6 9 12 13 13 12 13 12 10 10 10 10 8 11 10 13 14 16 18 19 19 19 20 18 18 19 20 20 21 22 20 21 22 22 20 19 19 20 20 23
0 4 7 9 10 9 10 12 12 11 10 11 11 10 9 9 12 14 15 16 18 18 18 19 19 17 18 17 17 19 20 22 21 23 24 24 24 21 19 19 20 21 21
5 7 9 10 9 10 11 11 11 10 11 11 9 10 12 13 14 17 18 16 16 17 18 19 18 19 16 17 17 19 20 20 20 20 24 24 24 23 21 21 22 22 20
8 9 8 8 10 10 10 11 11 11 10 9 11 13 14 15 15 18 17 17 17 19 17 16 17 19 19 20 21 22 23 23 19 24 28 28 28 26 25 19 20 20 20
8 7 6 7 8 9 9 10 9 9 9 10 13 12 13 15 16 17 18 16 17 16 17 17 17 19 20 20 18 20 21 20 20 16 17 20 24 26 28 27 22 20 18
8 6 5 6 6 7 8 8 9 10 9 11 12 12 12 14 15 18 20 16 15 18 17 18 16 15 12 17 18 17 18 19 19 18 18 18 16 17 18 18 21 22 21
8 6 5 5 6 7 8 9 10 10 11 13 14 14 14 13 15 19 20 19 19 18 18 16 13 9 13 16 14 14 18 16 14 14 14 15 15 16 16 17 19 19 19
8 6 6 6 7 8 9 10 11 11 11 13 15 17 17 17 15 19 21 18 20 18 16 9 11 13 12 10 12 14 12 10 10 11 11 12 13 14 14 14 15 17 17
8 7 5 6 9 10 8 9 10 11 12 13 16 17 18 17 16 18 18 18 18 11 11 6 8 10 9 9 11 11 10 10 10 10 10 11 11 10 10 11 12 11 14
8 6 5 5 7 9 7 7 9 7 8 14 14 15 17 17 18 21 19 19 14 12 8 6 8 10 12 13 13 12 11 12 11 10 10 10 8 6 4 4 8 9 11
7 4 3 5 5 6 8 9 4 6 9 10 13 12 14 16 20 19 20 17 15 13 6 8 9 10 12 13 14 13 13 14 14 12 11 11 10 7 4 2 4 6 7
4 3 3 3 5 7 9 10 11 9 7 8 11 13 15 17 18 18 19 15 14 11 9 9 10 11 11 12 13 13 14 14 13 12 12 12 11 9 6 2 3 4 6
2 3 4 3 5 7 7 8 7 9 11 12 9 12 15 17 16 17 18 12 10 12 10 10 10 11 11 12 13 13 13 14 14 14 13 12 12 10 9 8 5 2 1
5 6 4 3 4 5 5 7 6 8 10 11 11 11 13 14 13 14 14 11 10 11 11 11 11 11 11 12 12 12 13 13 14 14 14 13 12 11 9 8 6 6 3
6 6 3 3 6 6 7 7 8 9 10 10 11 12 13 12 13 13 12 11 11 10 11 11 11 11 12 12 12 12 13 14 14 14 14 13 12 10 10 9 8 6 6
4 4 3 4 6 6 6 7 7 7 9 9 9 8 9 10 10 11 11 10 10 10 10 11 11 11 12 12 12 12 12 13 13 13 13 12 11 11 9 8 7 6 5
4 2 3 5 5 6 6 6 6 6 7 7 8 7 8 8 9 9 9 9 9 8 8 9 9 9 10 11 12 11 12 12 13 14 13 11 11 11 9 8 8 7 6
3 3 3 5 4 6 6 5 6 6 7 6 6 7 7 8 8 8 9 9 8 8 8 8 9 9 10 10 10 10 11 12 11 10 11 11 11 10 9 9 9 9 8
5 7 5 5 5 6 6 6 5 5 6 5 5 5 5 6 7 7 7 7 7 7 8 8 8 10 11 11 11 10 9 10 9 8 9 10 10 10 9 8 8 8 8
6 6 5 5 5 7 7 6 5 5 5 5 5 4 4 4 4 5 5 5 6 7 7 7 8 9 10 12 13 13 12 13 12 10 9 9 10 11 9 9 8 7 9
5 6 6 5 4 6 7 7 6 5 5 5 4 4 3 3 3 4 5 6 6 6 7 6 7 9 10 10 12 13 13 13 12 13 9 9 10 10 9 9 10 8 9
Wind_Direction
347 338 332 333 336 337 336 342 358 352 327 18 37 30 19 359 331 288 275 274 273 285 261 259 261 264 271 268 265 271 271 268 270 278 275 272 273 272 272 268 265 267 263
330 326 341 349 358 6 13 23 22 13 36 32 17 8 338 305 303 313 318 312 302 296 293 289 289 293 288 286 285 280 276 276 274 275 276 273 268 271 268 267 266 263 262
338 342 359 4 13 13 7 4 10 9 15 10 359 347 343 335 331 330 328 311 293 290 294 294 296 297 293 290 286 282 279 275 271 271 272 271 267 268 268 264 261 260 264
332 344 349 345 342 347 342 334 338 346 349 356 341 314 301 303 304 304 306 302 301 298 297 295 293 292 291 291 286 281 279 275 272 268 269 269 266 263 261 264 262 255 260
336 338 338 323 347 342 322 328 319 320 322 315 317 320 327 322 327 325 330 321 310 304 300 298 296 295 289 284 281 278 277 273 270 269 268 268 267 263 256 263 264 267 264
306 6 14 345 330 340 331 331 332 333 341 345 346 345 344 351 4 349 337 315 304 298 298 299 298 293 287 283 277 271 270 273 270 267 266 266 267 265 262 259 262 264 268
295 310 315 329 338 343 342 342 339 337 340 342 344 343 344 344 343 330 323 307 299 297 298 296 294 291 288 287 285 279 273 268 263 267 270 266 267 265 263 258 253 258 262
277 307 324 334 338 338 342 339 337 336 335 333 339 344 333 326 331 327 320 306 300 299 296 292 292 293 293 290 284 282 279 272 263 254 254 261 265 264 261 258 257 262 265
288 317 329 338 331 338 340 334 330 327 331 339 337 330 326 324 329 325 323 313 306 303 298 294 290 292 287 288 287 281 280 278 267 258 258 260 260 257 255 263 249 245 253
302 314 322 326 333 336 330 323 323 322 322 331 328 328 324 321 324 327 325 315 306 305 302 297 289 283 287 290 293 293 288 287 288 286 269 261 255 255 248 242 249 246 243
281 290 312 321 325 322 313 312 318 319 314 319 319 319 318 325 325 326 327 320 313 307 304 306 302 293 310 309 304 293 291 296 287 282 278 275 266 250 250 241 236 240 244
260 272 296 308 313 302 300 307 318 320 318 324 325 328 336 331 325 325 325 323 315 311 306 301 317 339 328 320 311 312 308 301 284 277 273 270 262 254 252 248 242 238 238
244 263 282 305 303 298 299 310 317 324 326 330 332 334 334 335 331 328 319 316 323 314 308 351 344 335 330 325 332 329 328 320 302 291 285 282 276 268 263 251 241 239 241
255 268 289 304 314 311 304 309 316 326 332 333 333 333 334 332 336 333 335 332 326 326 328 343 344 338 336 339 348 350 342 334 321 308 301 298 291 285 261 244 240 233 234
270 278 286 308 318 320 321 318 326 332 336 336 338 334 334 334 335 336 342 335 343 342 348 1 3 2 5 5 358 358 351 351 350 342 329 325 320 319 293 255 244 237 236
294 295 292 316 333 333 332 330 338 351 354 352 349 348 339 336 338 348 349 348 5 358 14 15 9 7 10 1 360 360 2 358 358 350 348 346 340 329 299 264 244 243 246
324 310 313 324 328 339 339 338 338 340 345 0 1 357 355 346 353 359 359 1 13 16 28 17 15 10 2 359 4 3 1 1 358 1 357 352 348 0 7 299 249 233 237
353 327 314 310 333 337 339 339 335 339 341 347 353 360 2 360 5 9 7 10 15 19 18 15 13 7 2 1 2 2 2 6 9 5 3 0 358 353 16 22 25 3 289
332 336 334 305 320 327 330 336 338 341 344 346 351 0 1 1 9 16 18 23 13 12 6 8 8 4 1 0 2 1 359 5 9 7 7 4 5 5 10 13 18 30 45
338 338 341 329 329 333 338 339 345 351 352 354 357 359 356 359 9 12 17 16 16 11 3 2 1 3 3 3 3 6 8 9 11 12 8 4 7 12 9 11 21 36 45
315 337 350 345 340 334 333 339 348 351 352 353 358 1 1 4 4 10 12 14 10 5 3 1 0 1 2 2 4 7 9 11 9 6 4 5 10 17 11 14 27 43 49
295 281 325 332 334 335 335 338 347 348 350 352 354 355 4 11 8 11 13 10 7 7 6 3 3 2 0 358 359 3 6 8 7 2 360 3 16 23 19 21 24 30 34
332 291 303 321 330 325 325 335 342 345 344 346 351 352 0 6 6 12 9 7 8 9 9 11 11 8 6 4 2 2 2 360 352 352 354 5 17 20 22 25 27 32 31
308 304 281 312 319 324 314 320 327 330 331 335 342 350 351 358 0 7 9 7 8 10 12 13 13 14 12 13 11 6 1 355 350 355 360 11 18 17 22 23 25 27 34
296 301 288 303 316 319 314 304 310 312 317 317 328 333 337 344 344 350 354 357 2 7 9 11 10 6 11 15 16 13 7 8 12 1 10 19 26 25 25 26 22 28 27
301 308 307 290 303 314 308 296 297 299 304 309 306 312 308 319 327 328 335 342 352 359 2 6 6 7 11 17 14 13 11 13 14 13 15 22 26 27 23 26 22 29 33